Lakeview, OR

7:35 PM PST on December 05, 2016 (GMT -0800)
Lake County

Weather History for KLKV - January, 2013

Change the Weather History Date:

Tuesday, January 22, 2013

  Actual Average Record
Temperature  
Mean Temperature 13 °F -  
Max Temperature 28 °F 38 °F 54 °F (1961)
Min Temperature -2 °F 19 °F -16 °F (1932)
Degree Days  
Heating Degree Days 52    
Moisture  
Dew Point -25 °F    
Average Humidity 14    
Maximum Humidity 17    
Minimum Humidity 12    
Precipitation  
Precipitation 0.00 in - - ()
Sea Level Pressure  
Sea Level Pressure 30.15 in    
Wind  
Wind Speed 3 mph (North)    
Max Wind Speed 10 mph    
Max Gust Speed -    
Visibility 10 miles    
Events      
Averages and records for this station are not official NWS values.
T = Trace of Precipitation, MM = Missing Value Source: NWS Daily Summary

Daily Weather History Graph

Daily Weather History Graph

Search for Another Location

Airport or City:

Trip Planner

Search our weather history database for the weather conditions in past years. The results will help you decide how hot, cold, wet, or windy it might be!

Date:

Astronomy

Jan. 22, 2013 Rise Set
Actual Time 7:23 AM PST 5:03 PM PST
Civil Twilight 6:52 AM PST 5:34 PM PST
Nautical Twilight 6:18 AM PST 6:08 PM PST
Astronomical Twilight 5:45 AM PST 6:41 PM PST
Moon 1:29 PM PST (1/22) 3:49 AM PST (1/22)
Length of Visible Light 10h 41m
Length of Day
9h 40m
Waxing Gibbous, 83% of the Moon is Illuminated
Jan 22
Waxing Gibbous
Jan 26
Full
Feb 3
Last Quarter
Feb 9
New
Feb 17
First Quarter

Hourly Weather History & Observations

Time (PST) Temp. Windchill Dew Point Humidity Pressure Visibility Wind Dir Wind Speed Gust Speed Precip Events Conditions
12:15 AM -0.4 °F - - N/A% 30.23 in 10.0 mi Calm Calm - N/A   Clear
12:35 AM -0.4 °F - - N/A% 30.23 in 10.0 mi Calm Calm - N/A   Clear
12:55 AM -0.4 °F -10.4 °F - N/A% 30.23 in 10.0 mi NNE 4.6 mph - N/A   Clear
1:15 AM -0.4 °F - - N/A% 30.23 in 7.0 mi Calm Calm - N/A   Clear
1:35 AM -0.4 °F -14.7 °F - N/A% 30.22 in 10.0 mi North 8.1 mph - N/A   Clear
1:55 AM -0.4 °F -15.7 °F - N/A% 30.22 in 10.0 mi NNW 9.2 mph - N/A   Clear
2:15 AM -0.4 °F -14.7 °F - N/A% 30.21 in 10.0 mi North 8.1 mph - N/A   Clear
2:35 AM -0.4 °F -12.0 °F - N/A% 30.20 in 10.0 mi North 5.8 mph - N/A   Clear
2:55 AM -0.4 °F -10.4 °F - N/A% 30.19 in 10.0 mi NW 4.6 mph - N/A   Clear
3:15 AM -2.2 °F -14.2 °F - N/A% 30.18 in 10.0 mi ENE 5.8 mph - N/A   Clear
3:35 AM -2.2 °F - - N/A% 30.18 in 10.0 mi Calm Calm - N/A   Clear
3:55 AM -2.2 °F -16.8 °F - N/A% 30.18 in 10.0 mi West 8.1 mph - N/A   Clear
4:15 AM 1.4 °F -6.2 °F - N/A% 30.19 in 10.0 mi ESE 3.5 mph - N/A   Clear
4:35 AM -0.4 °F -16.7 °F - N/A% 30.20 in 10.0 mi SE 10.4 mph - N/A   Clear
4:55 AM -0.4 °F -13.4 °F - N/A% 30.20 in 10.0 mi SSE 6.9 mph - N/A   Clear
5:15 AM 3.2 °F -4.2 °F - N/A% 30.20 in 10.0 mi SW 3.5 mph - N/A   Clear
5:35 AM 1.4 °F -9.9 °F - N/A% 30.20 in 10.0 mi North 5.8 mph - N/A   Clear
5:55 AM -0.4 °F -13.4 °F - N/A% 30.20 in 10.0 mi NNW 6.9 mph - N/A   Clear
6:15 AM -0.4 °F -13.4 °F - N/A% 30.20 in 10.0 mi North 6.9 mph - N/A   Clear
6:35 AM -0.4 °F -8.3 °F - N/A% 30.20 in 10.0 mi North 3.5 mph - N/A   Clear
6:55 AM -0.4 °F -10.4 °F - N/A% 30.19 in 10.0 mi NW 4.6 mph - N/A   Clear
7:15 AM -0.4 °F -13.4 °F - N/A% 30.19 in 10.0 mi WNW 6.9 mph - N/A   Clear
7:35 AM -2.2 °F -10.4 °F - N/A% 30.19 in 10.0 mi ENE 3.5 mph - N/A   Clear
7:55 AM -0.4 °F -12.0 °F - N/A% 30.19 in 10.0 mi North 5.8 mph - N/A   Clear
8:15 AM 1.4 °F -8.3 °F - N/A% 30.19 in 10.0 mi West 4.6 mph - N/A   Clear
8:35 AM 3.2 °F - - N/A% 30.19 in 10.0 mi Calm Calm - N/A   Clear
8:55 AM 3.2 °F - - N/A% 30.19 in 10.0 mi Calm Calm - N/A   Clear
9:15 AM 1.4 °F - - N/A% 30.19 in 10.0 mi Calm Calm - N/A   Clear
9:35 AM 6.8 °F -2.0 °F -31.0 °F 16% 30.20 in 10.0 mi SE 4.6 mph - N/A   Clear
9:55 AM 6.8 °F -0.1 °F -31.0 °F 16% 30.21 in 10.0 mi SE 3.5 mph - N/A   Clear
10:15 AM 12.2 °F - -27.4 °F 15% 30.21 in 10.0 mi Calm Calm - N/A   Clear
10:35 AM 14.0 °F - -25.6 °F 16% 30.21 in 10.0 mi Calm Calm - N/A   Clear
10:55 AM 21.2 °F 16.4 °F -22.0 °F 14% 30.20 in 10.0 mi SW 3.5 mph - N/A   Clear
11:15 AM 23.0 °F - -20.2 °F 14% 30.19 in 10.0 mi Calm Calm - N/A   Clear
11:35 AM 21.2 °F 16.4 °F -22.0 °F 14% 30.19 in 10.0 mi SSW 3.5 mph - N/A   Clear
11:55 AM 17.6 °F 10.7 °F -23.8 °F 15% 30.18 in 10.0 mi SSE 4.6 mph - N/A   Clear
12:15 PM 23.0 °F 18.4 °F -22.0 °F 13% 30.17 in 10.0 mi SSW 3.5 mph - N/A   Clear
12:35 PM 26.6 °F - -18.4 °F 13% 30.16 in 10.0 mi Calm Calm - N/A   Clear
12:55 PM 26.6 °F - -18.4 °F 13% 30.15 in 10.0 mi Calm Calm - N/A   Clear
1:15 PM 26.6 °F 21.2 °F -16.6 °F 14% 30.15 in 10.0 mi ESE 4.6 mph - N/A   Clear
1:35 PM 21.2 °F - -20.2 °F 15% 30.14 in 10.0 mi Calm Calm - N/A   Clear
1:55 PM 28.4 °F - -18.4 °F 12% 30.13 in 10.0 mi Calm Calm - N/A   Clear
2:15 PM 21.2 °F 14.9 °F -20.2 °F 15% 30.13 in 10.0 mi ESE 4.6 mph - N/A   Clear
2:35 PM 23.0 °F - -20.2 °F 14% 30.12 in 10.0 mi Calm Calm - N/A   Clear
2:55 PM 26.6 °F 22.6 °F -18.4 °F 13% 30.12 in 10.0 mi SSW 3.5 mph - N/A   Clear
3:15 PM 26.6 °F - -18.4 °F 13% 30.12 in 10.0 mi Calm Calm - N/A   Clear
3:35 PM 26.6 °F - -18.4 °F 13% 30.11 in 10.0 mi Calm Calm - N/A   Clear
3:55 PM 24.8 °F - -20.2 °F 13% 30.10 in 10.0 mi Calm Calm - N/A   Clear
4:15 PM 21.2 °F - -20.2 °F 15% 30.10 in 10.0 mi Calm Calm - N/A   Clear
4:35 PM 15.8 °F 10.2 °F -23.8 °F 16% 30.10 in 10.0 mi NE 3.5 mph - N/A   Clear
4:55 PM 15.8 °F - -27.4 °F 13% 30.11 in 10.0 mi Calm Calm - N/A   Clear
5:15 PM 14.0 °F - -27.4 °F 14% 30.11 in 10.0 mi Calm Calm - N/A   Clear
5:35 PM 14.0 °F - -27.4 °F 14% 30.11 in 10.0 mi Calm Calm - N/A   Clear
5:55 PM 10.4 °F - -27.4 °F 17% 30.11 in 10.0 mi Calm Calm - N/A   Clear
6:15 PM 10.4 °F - -29.2 °F 15% 30.10 in 10.0 mi Calm Calm - N/A   Clear
6:35 PM 8.6 °F - -29.2 °F 16% 30.10 in 10.0 mi Calm Calm - N/A   Clear
6:55 PM 10.4 °F 2.2 °F -29.2 °F 15% 30.10 in 10.0 mi SSW 4.6 mph - N/A   Clear
7:15 PM 10.4 °F 4.0 °F -29.2 °F 15% 30.09 in 10.0 mi ESE 3.5 mph - N/A   Clear
7:35 PM 10.4 °F - -29.2 °F 15% 30.09 in 10.0 mi Calm Calm - N/A   Clear
7:55 PM 10.4 °F 4.0 °F -29.2 °F 15% 30.09 in 10.0 mi North 3.5 mph - N/A   Clear
8:15 PM 8.6 °F 0.1 °F -29.2 °F 16% 30.09 in 10.0 mi NE 4.6 mph - N/A   Clear
8:35 PM 10.4 °F 2.2 °F -29.2 °F 15% 30.09 in 10.0 mi NNW 4.6 mph - N/A   Clear
8:55 PM 10.4 °F 0.8 °F -29.2 °F 15% 30.09 in 10.0 mi NNW 5.8 mph - N/A   Clear
9:15 PM 12.2 °F 6.1 °F -27.4 °F 15% 30.09 in 10.0 mi North 3.5 mph - N/A   Clear
9:35 PM 12.2 °F 6.1 °F -27.4 °F 15% 30.09 in 10.0 mi WNW 3.5 mph - N/A   Clear
9:55 PM 10.4 °F - -29.2 °F 15% 30.10 in 10.0 mi Calm Calm - N/A   Clear
10:15 PM 10.4 °F 2.2 °F -29.2 °F 15% 30.10 in 10.0 mi ENE 4.6 mph - N/A   Clear
10:35 PM 12.2 °F 6.1 °F -27.4 °F 15% 30.10 in 10.0 mi SSE 3.5 mph - N/A   Clear
10:55 PM 15.8 °F 7.2 °F -27.4 °F 13% 30.10 in 10.0 mi WSW 5.8 mph - N/A   Clear
11:15 PM 15.8 °F - -25.6 °F 14% 30.10 in 10.0 mi Calm Calm - N/A   Clear
11:35 PM 15.8 °F - -25.6 °F 14% 30.10 in 10.0 mi Calm Calm - N/A   Clear
11:55 PM 15.8 °F - -25.6 °F 14% 30.10 in 10.0 mi Calm Calm - N/A   Clear